Saint Francis, KS

5:58 AM CDT on July 26, 2016 (GMT -0500)
Cheyenne County Municipal

Weather History for KSYF - May, 2014

Change the Weather History Date:

Sunday, May 25, 2014

  Actual Average Record
Temperature  
Mean Temperature 64 °F -  
Max Temperature 77 °F 77 °F 94 °F (2013)
Min Temperature 52 °F 50 °F 46 °F (2015)
Growing Degree Days 14 (Base 50)    
Moisture  
Dew Point 50 °F    
Average Humidity 64    
Maximum Humidity 92    
Minimum Humidity 23    
Precipitation  
Precipitation 0.00 in - - ()
Sea Level Pressure  
Sea Level Pressure 29.95 in    
Wind  
Wind Speed 8 mph (SE)    
Max Wind Speed 14 mph    
Max Gust Speed 20 mph    
Visibility 10 miles    
Events      
Averages and records for this station are not official NWS values.
T = Trace of Precipitation, MM = Missing Value Source: NWS Daily Summary

Daily Weather History Graph

Daily Weather History Graph

Search for Another Location

Airport or City:

Trip Planner

Search our weather history database for the weather conditions in past years. The results will help you decide how hot, cold, wet, or windy it might be!

Date:

Astronomy

May. 25, 2014 Rise Set
Actual Time 6:24 AM CDT 9:03 PM CDT
Civil Twilight 5:53 AM CDT 9:35 PM CDT
Nautical Twilight 5:14 AM CDT 10:14 PM CDT
Astronomical Twilight 4:29 AM CDT 10:59 PM CDT
Moon 4:30 AM CDT (5/25) 6:07 PM CDT (5/25)
Length of Visible Light 15h 42m
Length of Day
14h 39m
Waning Crescent, 10% of the Moon is Illuminated
May 25
Waning Crescent
May 28
New
Jun 5
First Quarter
Jun 12
Full
Jun 19
Last Quarter

Hourly Weather History & Observations

Time (CDT) Temp. Dew Point Humidity Pressure Visibility Wind Dir Wind Speed Gust Speed Precip Events Conditions
12:15 AM 60.3 °F 57.4 °F 90% 29.97 in 10.0 mi SE 9.2 mph - N/A   Clear
12:35 AM 60.1 °F 57.4 °F 91% 29.97 in 7.0 mi ESE 9.2 mph - N/A   Clear
12:55 AM 59.5 °F 57.2 °F 92% 29.97 in 5.0 mi ESE 9.2 mph - N/A   Clear
1:15 AM 59.2 °F 56.8 °F 92% 29.97 in 5.0 mi SE 9.2 mph - N/A   Clear
1:35 AM 59.9 °F 57.6 °F 92% 29.96 in 5.0 mi SE 10.4 mph - N/A   Scattered Clouds
1:55 AM 59.9 °F 57.4 °F 91% 29.95 in 5.0 mi SE 8.1 mph - N/A   Scattered Clouds
2:15 AM 59.5 °F 57.2 °F 92% 29.95 in 5.0 mi SSE 8.1 mph - N/A   Clear
2:35 AM 59.0 °F 56.3 °F 91% 29.94 in 10.0 mi SSE 6.9 mph - N/A   Clear
2:55 AM 59.0 °F 55.0 °F 87% 29.93 in 10.0 mi Calm Calm - N/A   Clear
3:15 AM 59.0 °F 54.5 °F 85% 29.92 in 10.0 mi Calm Calm - N/A   Scattered Clouds
3:35 AM 57.7 °F 54.1 °F 88% 29.92 in 10.0 mi SSE 4.6 mph - N/A   Scattered Clouds
3:55 AM 57.4 °F 53.6 °F 87% 29.93 in 10.0 mi Calm Calm - N/A   Clear
4:15 AM 57.7 °F 52.0 °F 81% 29.93 in 10.0 mi Calm Calm - N/A   Clear
4:35 AM 55.9 °F 52.2 °F 87% 29.94 in 10.0 mi South 10.4 mph - N/A   Clear
4:55 AM 56.3 °F 51.4 °F 84% 29.93 in 10.0 mi South 8.1 mph - N/A   Clear
5:15 AM 55.9 °F 51.1 °F 84% 29.94 in 10.0 mi Calm Calm - N/A   Clear
5:35 AM 54.7 °F 51.1 °F 88% 29.94 in 10.0 mi Calm Calm - N/A   Clear
5:55 AM 54.5 °F 50.0 °F 85% 29.94 in 10.0 mi Calm Calm - N/A   Clear
6:15 AM 53.4 °F 49.8 °F 88% 29.96 in 10.0 mi WSW 5.8 mph - N/A   Clear
6:35 AM 53.1 °F 50.0 °F 89% 29.96 in 10.0 mi WSW 6.9 mph - N/A   Clear
6:55 AM 53.1 °F 49.6 °F 88% 29.96 in 10.0 mi WSW 4.6 mph - N/A   Clear
7:15 AM 52.3 °F 49.3 °F 89% 29.96 in 10.0 mi Calm Calm - N/A   Clear
7:35 AM 52.3 °F 49.8 °F 91% 29.97 in 10.0 mi South 3.5 mph - N/A   Clear
7:55 AM 52.9 °F 50.2 °F 91% 29.96 in 10.0 mi Calm Calm - N/A   Clear
8:15 AM 56.7 °F 53.1 °F 88% 29.95 in 10.0 mi Calm Calm - N/A   Clear
8:35 AM 58.8 °F 54.1 °F 84% 29.93 in 10.0 mi NE 5.8 mph - N/A   Clear
8:55 AM 61.5 °F 55.8 °F 81% 29.94 in 10.0 mi East 6.9 mph - N/A   Clear
9:15 AM 62.1 °F 55.4 °F 79% 29.96 in 10.0 mi East 5.8 mph - N/A   Clear
9:55 AM 63.3 °F 55.6 °F 76% 29.97 in 10.0 mi East 6.9 mph - N/A   Clear
10:15 AM 64.4 °F 55.8 °F 73% 29.99 in 10.0 mi ESE 8.1 mph - N/A   Scattered Clouds
10:35 AM 64.6 °F 56.1 °F 74% 29.98 in 10.0 mi ESE 6.9 mph - N/A   Mostly Cloudy
10:55 AM 65.3 °F 56.3 °F 73% 29.97 in 10.0 mi ESE 11.5 mph - N/A   Scattered Clouds
11:15 AM 66.2 °F 56.7 °F 71% 29.97 in 10.0 mi ESE 10.4 mph - N/A   Scattered Clouds
11:55 AM 67.8 °F 55.4 °F 64% 29.98 in 10.0 mi SSE 8.1 mph - N/A   Clear
12:15 PM 69.1 °F 54.3 °F 59% 29.98 in 10.0 mi SSE 8.1 mph - N/A   Clear
12:35 PM 70.5 °F 54.1 °F 56% 29.98 in 10.0 mi SE 10.4 mph 16.1 mph N/A   Scattered Clouds
12:55 PM 71.2 °F 52.3 °F 51% 29.98 in 10.0 mi SE 12.7 mph - N/A   Scattered Clouds
1:15 PM 71.6 °F 49.8 °F 46% 29.97 in 10.0 mi SSE 10.4 mph 16.1 mph N/A   Scattered Clouds
1:55 PM 73.9 °F 47.7 °F 39% 29.96 in 10.0 mi South 6.9 mph 19.6 mph N/A   Clear
2:15 PM 73.4 °F 47.7 °F 40% 29.95 in 10.0 mi SE 5.8 mph - N/A   Clear
2:35 PM 74.7 °F 47.3 °F 38% 29.95 in 10.0 mi SE 9.2 mph - N/A   Clear
2:55 PM 76.1 °F 46.0 °F 34% 29.95 in 10.0 mi SE 8.1 mph - N/A   Clear
3:15 PM 76.6 °F 43.5 °F 31% 29.94 in 10.0 mi South 8.1 mph - N/A   Clear
3:35 PM 77.0 °F 39.9 °F 26% 29.93 in 10.0 mi SSE 11.5 mph - N/A   Clear
4:15 PM 77.5 °F 38.8 °F 25% 29.92 in 10.0 mi South 12.7 mph - N/A   Clear
4:35 PM 77.2 °F 36.5 °F 23% 29.92 in 10.0 mi South 13.8 mph - N/A   Clear
4:55 PM 77.5 °F 38.1 °F 24% 29.91 in 10.0 mi SSE 11.5 mph - N/A   Clear
5:15 PM 77.0 °F 38.8 °F 25% 29.91 in 10.0 mi SSE 13.8 mph - N/A   Clear
5:35 PM 76.5 °F 39.2 °F 26% 29.91 in 10.0 mi SSE 12.7 mph - N/A   Clear
5:55 PM 76.3 °F 39.7 °F 27% 29.90 in 10.0 mi SSE 12.7 mph - N/A   Clear
6:15 PM 76.5 °F 38.3 °F 25% 29.89 in 10.0 mi SE 12.7 mph - N/A   Clear
6:35 PM 76.1 °F 38.8 °F 26% 29.89 in 10.0 mi SSE 10.4 mph - N/A   Clear
6:55 PM 74.8 °F 40.5 °F 29% 29.89 in 10.0 mi SE 9.2 mph - N/A   Clear
7:15 PM 74.1 °F 43.9 °F 34% 29.90 in 10.0 mi SE 9.2 mph - N/A   Clear
7:35 PM 72.9 °F 45.5 °F 38% 29.90 in 10.0 mi SE 8.1 mph - N/A   Clear
7:55 PM 72.0 °F 46.4 °F 40% 29.91 in 10.0 mi SE 8.1 mph - N/A   Clear
8:15 PM 70.7 °F 47.5 °F 44% 29.91 in 10.0 mi ESE 9.2 mph - N/A   Clear
8:35 PM 68.9 °F 48.7 °F 49% 29.92 in 10.0 mi SE 9.2 mph - N/A   Clear
8:55 PM 68.0 °F 48.4 °F 49% 29.93 in 10.0 mi ESE 10.4 mph - N/A   Clear
9:15 PM 66.7 °F 49.1 °F 53% 29.94 in 10.0 mi SE 10.4 mph - N/A   Clear
9:35 PM 65.1 °F 50.0 °F 58% 29.94 in 10.0 mi SE 9.2 mph - N/A   Clear
9:55 PM 64.6 °F 49.8 °F 59% 29.95 in 10.0 mi SSE 12.7 mph - N/A   Clear
10:15 PM 64.4 °F 50.0 °F 59% 29.96 in 10.0 mi SSE 11.5 mph - N/A   Clear
10:35 PM 63.5 °F 50.4 °F 62% 29.97 in 10.0 mi SE 9.2 mph - N/A   Clear
10:55 PM 63.0 °F 50.5 °F 64% 29.97 in 10.0 mi SSE 11.5 mph - N/A   Clear
11:15 PM 64.4 °F 50.0 °F 59% 29.97 in 10.0 mi SE 10.4 mph - N/A   Clear
11:35 PM 63.9 °F 51.1 °F 63% 29.98 in 10.0 mi SSE 10.4 mph - N/A   Clear
11:55 PM 64.0 °F 52.7 °F 67% 29.97 in 10.0 mi SSE 11.5 mph - N/A   Clear